Location: Indian Hills
(32.9760°N, 85.9450°W)
Time: 08:39:30
(UTC+00:00)

SL-16 R/B - Pass Details

Date: 09 December 2019
Orbit: 840 x 849 km, 71.0° (Epoch: 21 January)

Event Time Altitude Azimuth Distance (km) Brightness Sun altitude
Exits shadow 09:39:46 37° 79° (E) 1,291 3.5 -35.9°
Drops below altitude 10° 09:44:23 10° 132° (SE) 2,462 5.2 -34.9°
Sets 09:46:59 0° 140° (SE) 3,393 5.9 -34.4°
